SNEZKA Weather Reports


time (UTC)temp
C
wind
direction
speed
KPH
gust
KPH
rain 1hr
cm
rain 24hr
cm
rain mn
cm
humidity
%
barometer
mb
20260509171959 1 90 8.0 0.0 0.00 0.00 0.00 99
20260509162259 1 30 14.5 0.0 0.00 0.00 0.00 99
20260509151958 1 20 19.3 0.0 0.00 0.00 0.00 99
20260509141958 1 10 8.0 0.0 0.00 0.00 0.00 99
20260509132058 1 10 11.3 0.0 0.00 0.00 0.00 99
20260509121959 1 20 8.0 0.0 0.00 0.00 0.00 99
20260509111958 1 360 11.3 0.0 0.00 0.00 0.00 99
20260509102158 0 10 11.3 0.0 0.00 0.00 0.00 99
20260509091959 0 350 8.0 0.0 0.00 0.00 0.00 99
20260509081959 0 10 11.3 0.0 0.00 0.00 0.00 99
20260509072058 0 320 8.0 0.0 0.00 0.00 0.00 99
20260509061959 -1 340 14.5 0.0 0.00 0.00 0.00 99
20260509051958 0 330 8.0 0.0 0.00 0.00 0.00 99
20260509042201 0 300 11.3 0.0 0.00 0.00 0.00 99
20260509031958 0 290 19.3 0.0 0.00 0.00 0.00 99
20260509021958 0 270 14.5 0.0 0.00 0.00 0.00 99
20260509012100 0 290 14.5 0.0 0.00 0.00 0.00 99
20260509001958 0 310 11.3 0.0 0.00 0.00 0.00 99
20260508231958 0 300 19.3 0.0 0.00 0.00 0.00 100
20260508222158 1 280 19.3 0.0 0.00 0.00 0.00 99
20260508211958 1 280 14.5 0.0 0.00 0.00 0.00 99
20260508201959 1 360 11.3 0.0 0.00 0.00 0.00 99
20260508192059 1 360 8.0 0.0 0.00 0.00 0.00 99